This demonstration page uses our WeatherBlox Daily Observations layout. Learn more.

Left ArrowRight Arrow

38.80484, -77.04692

Hourly Observations for November 29, 2022

Temp ( °F °C ) Dew Point ( °F °C ) Humidity (%) Winds ( mph kmh ) Pressure ( in mb ) Visibility ( mi km ) Precip ( " mm )
12:52 am 00:52 Mostly Clear 41 5 33 0.6 73 73 NW 5 7 30.14 1021 10 16 0.00 0.00
1:52 am 01:52 Mostly Clear 41 5 35 1.7 79 79 S 3 6 30.16 1022 10 16 0.00 0.00
2:52 am 02:52 Mostly Clear 41 5 34 1.1 76 76 Calm 30.17 1022 10 16 0.00 0.00
3:52 am 03:52 Mostly Clear 39 3.9 34 1.1 82 82 SW 3 6 30.18 1022 10 16 0.00 0.00
4:52 am 04:52 Mostly Cloudy 37 2.8 33 0.6 85 85 WSW 3 6 30.20 1023 10 16 0.00 0.00
5:52 am 05:52 Cloudy 39 3.9 37 2.8 93 93 Calm 30.22 1023 10 16 0.00 0.00
6:52 am 06:52 Cloudy 41 5 36 2.2 82 82 Calm 30.25 1024 10 16 0.00 0.00
7:52 am 07:52 Cloudy 43 6.1 39 3.9 86 86 NE 3 6 30.27 1025 10 16 0.00 0.00
8:52 am 08:52 Cloudy 45 7.2 38 3.3 76 76 Calm 30.30 1026 10 16 0.00 0.00
9:52 am 09:52 Cloudy 47 8.3 37 2.8 68 68 SSE 6 9 30.31 1027 10 16 0.00 0.00
10:52 am 10:52 Cloudy 48 8.9 36 2.2 63 63 S 7 11 30.32 1027 10 16 0.00 0.00
11:52 am 11:52 Cloudy 49 9.4 37 2.8 63 63 SSW 7 11 30.31 1026 10 16 0.00 0.00
12:52 pm 12:52 Cloudy 50 10 37 2.8 61 61 SSW 7 11 30.27 1025 10 16 0.00 0.00
1:52 pm 13:52 Mostly Cloudy 51 10.6 36 2.2 56 56 S 5 7 30.24 1024 10 16 0.00 0.00
2:52 pm 14:52 Mostly Cloudy 52 11.1 36 2.2 54 54 SSW 6 9 30.24 1024 10 16 0.00 0.00
3:52 pm 15:52 Mostly Cloudy 51 10.6 37 2.8 58 58 S 5 7 30.23 1024 10 16 0.00 0.00
4:52 pm 16:52 Mostly Cloudy 50 10 39 3.9 66 66 S 10 17 30.22 1023 10 16 0.00 0.00
5:52 pm 17:52 Mostly Cloudy 48 8.9 37 2.8 66 66 SSE 7 11 30.24 1024 10 16 0.00 0.00
6:52 pm 18:52 Mostly Cloudy 48 8.9 36 2.2 63 63 SSE 8 13 30.25 1024 10 16 0.00 0.00
7:52 pm 19:52 Mostly Cloudy 47 8.3 36 2.2 65 65 SSE 8 13 30.23 1024 10 16 0.00 0.00
8:52 pm 20:52 Mostly Cloudy 46 7.8 36 2.2 68 68 SSE 6 9 30.22 1023 10 16 0.00 0.00
9:52 pm 21:52 Mostly Cloudy 45 7.2 37 2.8 74 74 S 7 11 30.23 1024 10 16 0.00 0.00
10:52 pm 22:52 Mostly Cloudy 45 7.2 38 3.3 76 76 S 6 9 30.21 1023 10 16 0.00 0.00
11:52 pm 23:52 Cloudy 46 7.8 40 4.4 79 79 S 8 13 30.18 1022 10 16 0.00 0.00

Powered by AerisWeather